Torna al catalogo

HAWK-10B

AttivoScienzaSSO
NORAD 60545·PAYLOAD·🇺🇸 United States

Lanciato Aug 16, 2024 da Vandenberg Space Force Base

Loading…

Prossimi Passaggi (prossime 24 ore)

TLE

AggiornatoSource: Space-Track

Epoca: Sep 14, 2026, 15:01 UTC

1 60545U 24149CF  26257.62610832  .00001678  00000-0  15181-3 0  9991
2 60545  97.6747 331.2444 0006360 139.7627 220.4066 14.96729438113360

Traccia HAWK-10B in tempo reale con AllMySat

Download on the App Store